ION SCV Magnificent Monica

operational
NORAD ID: 60573 Int'l Des: 2024-149 Owner: DORBIT Country: I
LEOCIRCULARRETROGRADESSO

关于 ION SCV Magnificent Monica

正在加载描述...

实时位置

正在加载3D地球...

即将过境

高度历史

Altitude vs Time

uPlot chart will show altitude changes over time

两行轨道根数

1 60573U 24149DK 26062.20425193 .00001524 00000-0 14568-3 0 9992
2 60573 97.6858 138.4384 0004696 82.0563 278.1190 14.94679467 84081
Epoch: Mar 3, 2026 • Age: 22 hours

当前状态

高度 588.6 km
速度 7.56 km/s
星下点 -7.11°S, 170.55°W
发射日期 Aug 16, 2024
运行时间 1.5 years
类型 other

技术详情

分类 Payload
质量 150.00 kg
干质量 150.00 kg
总质量 220.00 kg
长度 0.40 m
直径 0.40 m
跨度 0.40 m
形状 Box
制造商 DORBIT
平台类型 ION-SC
阶段状态 In Orbit
所有者/国家 DORBIT/I

大型星座

Loading constellations...